Погода в Выборге

Погода в Выборге : погода сейчас, прогноз погоды и архив. Всё, что Вы хотите узнать о погоде в Выборге!

Хотите узнать прогноз погоды в Выборге? Тогда Вам сюда: Погода в Выборге

Поиск расширенной информации на нашем сайте:

Другие новости

Новости СМИ2

Главная страница сайта

Новости сайта

03.07.2017

Напоминаем, что на нашем специализированном сайте Метеоцентр.Азия вы можете получить высокодетализированные автоматические прогнозы погоды по пунктам России, СНГ и мира в авиационном формате (включающие направление и скорость ветра, видимость, явления погоды, количество и форму облачности, нижнюю и верхнюю границу облачности).


Погода в Выборге - сегодня

Время (UTC), дата Ветер
(°,м/с) 
Видим.   Явления Облачность Т
(°С)
Тd
(°С)
f(%) Тe
(°С)
Pmin
(гПа)
dP
(гПа)
Po
(мм)
O2
(г/м3)
Тmin Tmax R s Состояние
почвы
15 13.01.18 340 (С) 10 км  в посл. час снег  10/10 600 м 
[Sc]
-5.8 -6.8 93 -5  1043.3  -0.3  781  322      0.2     
18 13.01.18 320 (СЗ) 10 км  {снег}  10/10 600 м 
[Sc]
-5.3 -6.3 93 -5  1043.2  0.1  781  322    -5.3  0.2     
21 13.01.18 260 (З) 10 км    10/10 600 м 
[Sc]
-4.9 -5.9 93 -6  1042.7  -0.5  781  321           
00 14.01.18 300 (СЗ) 10 км    10/10 600 м 
[Sc]
-4.4 -5.7 91 -4  1042.5  -0.2  781  320           
03 14.01.18 270 (З) 10 км    10/10 600 м 
[Sc]
-4 -5.5 89 -4  1042.3  -0.2  780  320  -5.8         
06 14.01.18 280 (З) 10 км    10/10 600 м 
[Sc]
-3.7 -5.6 87 -3  1041.4  -0.9  780  319  -5.3      равномерный
сухой снег
100% 
09 14.01.18 тихо ()   10 км    10/10 600 м 
[Sc]
-3.3 -5.9 82 -3  1041.8  0.4  780  319           
12 14.01.18 140 (ЮВ) 10 км    10/10 600 м 
[Sc]
-3.4 -5.2 87 -3  1041.1  -0.7  780  319           
15 14.01.18 150 (ЮВ) 10 км    10/10 600 м 
[Sc]
-3.6 -4.6 93 -6  1040.4  -0.7  779  319           
18 14.01.18 180 (Ю) 10 км  {снег}  10/10 600 м 
[Sc]
-3.3 -5.2 87 -7  1039.6  -0.8  778  318    -3.1  0.0     
21 14.01.18 190 (Ю) 10 км    10/10 600 м 
[Sc]
-4 -5.8 87 -8  1039  -0.6  778  319           
00 15.01.18 170 (Ю) 10 км    10/10 600 м 
[Sc]
-4.3 -6 88 -8  1037.6  -0.9  777  319           
03 15.01.18 210 (ЮЗ) 10 км  слаб. снег  10/10 600 м 
[Sc]
-5.9 -7.5 88 -10  1036.3  -1.3  776  320  -5.9    0.0     
06 15.01.18 180 (Ю) 10 км  слаб. снег  10/10 600 м 
[Sc]
-6.8 -8.3 89 -11  1035.1  -1.2  775  321  -6.8    0.0  равномерный
сухой снег
100% 
09 15.01.18 200 (Ю) 6{10}  10 км  слаб. снег  10/10 300 м 
[Ns]
-7.3 -9 88 -12  1034.1  -1  774  322           
12 15.01.18 180 (Ю) 10 км  слаб. снег  10/10 300 м 
[Ns]
-8 -10.2 84 -13  1032.2  -1.9  773  322           
15 15.01.18 150 (ЮВ) 10 км  слаб. снег  10/10 300 м 
[Ns]
-9 -10.8 87 -14  1030.1  -2.2  771  322      0.2     
18 15.01.18 160 (Ю) 10 км  слаб. снег{ливн. осадки}  10/10 300 м 
[Ns]
-9.7 -11.3 88 -14  1027.8  -2.3  770  323    -6.8  0.2     
21 15.01.18 170 (Ю) 10 км  слаб. снег  10/10 300 м 
[Ns]
-9.9 -11.4 89 -15  1025.5  -2.2  768  322           
00 16.01.18 160 (Ю) 6{10}  10 км  слаб. снег  10/10 300 м 
[Ns]
-10 -11.6 88 -15  1023.6  -1.9  766  322           
03 16.01.18 160 (Ю) 10 км  {снег}  10/0 
[Sc]
-10.2 -12 87 -16  1021.6  -2  765  321  -10.2    0.0     
06 16.01.18 150 (ЮВ) 5{10}  20000 м  {снег}  1/0 средняя 
[Ac As]
-11.6 -13.3 87 -17  1019.4  -2.1  763  322  -11.6    0.0  равномерный
сухой снег
100% 
09 16.01.18 160 (Ю) 7{10}  20000 м    3/0 верхняя 
[Ci fib]
-10.2 -12.6 83 -16  1018.4  -1  763  320           
12 16.01.18 160 (Ю) 8-10{11}  20000 м  позёмок  6/0 верхняя 
[Ci fib]
-8.9 -12.6 74 -15  1017.1  -1.3  762  318           
15 16.01.18 140 (ЮВ) 6{10}  10 км    ясно 
-9.9 -13.4 76 -15  1015.2  -1.8  760  319           
Время (UTC), дата Ветер
(°,м/с) 
Видим.   Явления Облачность Т
(°С)
Тd
(°С)
f(%) Тe
(°С)
Pmin
(гПа)
dP
(гПа)
Po
(мм)
O2
(г/м3)
Тmin Tmax R s Состояние
почвы

Для получения пояснительной информации подведите курсор к названию столбца.

ПОГОДА в Выборге - архив

Всё, что Вы хотите узнать о погоде в Выборге - удобно и подробно!

Выберите нужную дату (начиная с 1 января 2015* года) и нажмите кнопку "Найти".
Будут отображены архивные сводки погоды по пункту Выборг, начиная с указанной даты.


Отображать данные в формате CSV (для использования в таблицах Excel)


Внимание! Наш архив погоды предназначен исключительно для личного некоммерческого использования в познавательных целях. Если Вам необходимы официальные справки о состоянии погоды (для производственных, юридических, коммерческих и т.п. целей), обращайтесь в органы Росгидромета.

*Примечание: данная дата относится к архиву по метеостанциям СССР (Россия, СНГ, Балтия).
Архив по метеостанциям Зарубежной Европы и Азии (кроме Китая) хранится 10 дней, по другим регионам земного шара (Китай, Африка, Америка, Австралия, Океания) - 1 день.

Выборг - район местоположения метеостанции


Название, широта, долгота, высота метеостанции:
Выборг 60.7°ш. 28.7°д. 13 м над ур. моря [Российская Федерация]

Дополнительная информация

В oтличие oт бoльшинства пoгoдных сайтoв мы публикуем пoдрoбную метеoинфoрмацию в детальнoм прoфессиoнальнoм фoрмате.

Характеристики температуры и влажнoсти вoздуха измеряются на высoте 2 м в тени вдали oт зданий и деревьев.
Скoрoсть ветра измеряется на высoте 10 м (на урoвне рoста челoвека скoрoсть ветра ниже в 1.5-2 раза). Если метеoстанция нахoдится в гoрoде или в лесу, тo скoрoсть ветра занижена на 2-4 м/с пo сравнению с oткрытым местoм. Скoрoсть ветра над акватoриями крупных рек и oзёр, а также на вершинах хoлмoв на 2-5 м/с выше, чем в oбычных услoвиях.
Атмoсфернoе давление в разных тoчках местнoсти мoжет значительнo oтличаться oт давления на метеoстанции, в зависимoсти oт услoвий рельефа (при пoдъёме на 10 м давление пoнижается примернo на 1 мм рт.ст.).